Location: Esp�n
(42.4593°N, 0.2047°W)
Time: 10:13:53
(UTC+00:00)

Cosmos 2263 Rocket - Pass Details

Date: 07 June 2020
Orbit: 825 x 847 km, 71.0° (Epoch: 10 July)

Event Time Altitude Azimuth Distance (km) Brightness Sun altitude
Rises 01:03:25 0° 340° (NNW) 3,387 6.2 -23.1°
Reaches altitude 10° 01:05:59 10° 346° (NNW) 2,446 5.4 -23.0°
Maximum altitude 01:11:22 46° 60° (ENE) 1,097 3.0 -22.7°
Enters shadow 01:15:55 14° 130° (SE) 2,145 4.1 -22.4°
